[[{"header":{"parameterUnit":"m.s-1","parameterCategory":1,"la1":30.2991,"la2":30.254,"lo1":-89.0895,"lo2":-89.0444,"dy":0.0017,"dx":0.0017,"nx":28,"ny":28,"refTime":"2024-02-14T09:00:00:Z","depth":0,"parameterNumber":2,"parameterNumberName":"U-component_of_WINDS"},"data":[0,0,0,0,0,0,0,0,0,0,0,0,0,0,0,0,0,0,0,0,0,0,0,0,0,0,0,0,0,0,0,0,0,0,0,0,0,0,0,0,0,0,0,0,0,0,0,0,0,0,0,0,0,0,0,0,0,0,-1.6047,-1.6047,0,-1.6071,-1.6071,-1.6071,-1.6024,-1.6023,-1.6021,-1.602,-1.6048,-1.605,-1.6052,0,0,0,0,0,0,0,0,0,0,0,0,0,-1.5963,-1.5965,-1.6047,-1.6047,-1.6047,-1.6071,-1.6071,-1.6072,-1.6024,-1.6022,-1.6021,-1.6019,-1.6047,-1.6049,-1.6052,0,0,0,0,0,0,0,0,0,0,0,0,0,-1.5995,-1.5965,-1.6046,-1.6026,-1.6025,-1.6071,-1.6071,-1.6072,-1.6025,-1.6022,-1.602,-1.6018,-1.6046,-1.6049,-1.6052,-1.612,0,0,-1.6063,-1.6064,0,0,0,0,0,0,0,0,-1.5993,-1.5998,-1.6029,-1.6028,-1.6026,-1.6042,-1.6052,-1.6088,-1.6025,-1.6025,-1.6019,-1.6017,-1.6048,-1.6051,-1.6061,-1.6121,-1.6123,-1.6063,-1.6065,-1.6066,-1.6067,0,0,0,0,0,0,0,-1.5991,-1.5996,-1.6056,-1.603,-1.6028,-1.6017,-1.6019,-1.6059,-1.6049,-1.6025,-1.6021,-1.6025,-1.6047,-1.6058,-1.6061,-1.6123,-1.6063,-1.6066,-1.6068,-1.6069,-1.6241,-1.6244,0,0,0,0,0,0,-1.599,-1.5995,-1.6055,-1.6057,-1.6003,-1.6021,-1.6023,-1.6039,-1.6049,-1.6048,-1.6027,-1.6022,-1.6053,-1.6057,-1.6062,-1.6141,-1.6066,-1.6069,-1.6071,-1.6239,-1.6242,-1.6245,0,0,0,0,0,0,-1.5989,-1.5996,-1.6054,-1.6025,-1.6032,-1.6025,-1.6044,-1.6041,-1.6052,-1.605,-1.6049,-1.6039,-1.6051,-1.6057,-1.6106,-1.6142,-1.6071,-1.6074,-1.6236,-1.624,-1.6243,-1.6302,0,0,0,0,0,0,-1.5987,-1.5996,-1.6021,-1.6026,-1.6033,-1.6097,-1.6046,-1.6043,-1.6057,-1.6052,-1.6062,-1.6061,-1.605,-1.6101,-1.6109,-1.6145,-1.6077,-1.6233,-1.6238,-1.6242,-1.6296,-1.6307,-1.6316,0,0,0,0,0,-1.5984,-1.6036,-1.6022,-1.603,-1.6064,-1.6099,-1.6104,-1.6089,-1.606,-1.6086,-1.6085,-1.6061,-1.6137,-1.6107,-1.6115,-1.6153,-1.623,-1.6236,-1.6242,-1.6292,-1.6305,-1.6316,0,0,0,0,0,0,-1.6036,-1.6037,-1.6021,-1.6076,-1.6088,-1.6091,-1.6122,-1.6103,-1.6124,-1.6118,-1.61,-1.6102,-1.6155,-1.6159,-1.6125,-1.6219,-1.6179,-1.6187,-1.6214,-1.6226,-1.6236,-1.6233,-1.6079,0,0,0,0,0,-1.6054,-1.6082,-1.6081,-1.6131,-1.6137,-1.6129,-1.6144,-1.6132,-1.6143,-1.6148,-1.6151,-1.6164,-1.6191,-1.6209,-1.6234,-1.6297,-1.6299,-1.6328,-1.6337,-1.6346,-1.6352,-1.6386,-1.6399,-1.6264,-1.6264,-1.6264,0,0,-1.6092,-1.6095,-1.6114,-1.6141,-1.6149,-1.6179,-1.6133,-1.6167,-1.6189,-1.6154,-1.6199,-1.6202,-1.6216,-1.6273,-1.6298,-1.6277,-1.639,-1.6353,-1.6359,-1.6362,-1.6394,-1.6407,-1.6418,-1.6268,-1.6267,-1.6267,0,0,-1.6175,-1.6181,-1.6222,-1.6231,-1.6243,-1.6237,-1.6247,-1.6254,-1.6254,-1.6299,-1.6273,-1.6301,-1.6348,-1.6358,-1.637,-1.646,-1.6439,-1.6469,-1.6519,-1.6553,-1.6564,-1.6573,-1.6605,-1.6616,-1.6476,-1.6476,-1.6476,0,-1.622,-1.6263,-1.6246,-1.6282,-1.6295,-1.6264,-1.6306,-1.6316,-1.6336,-1.6346,-1.6324,-1.6382,-1.6389,-1.6448,-1.647,-1.6481,-1.6492,-1.6467,-1.6563,-1.6573,-1.6581,-1.6611,-1.6623,-1.6479,-1.6479,-1.6479,-1.6478,0,-1.6318,-1.6348,-1.6381,-1.64,-1.6417,-1.6456,-1.6447,-1.6466,-1.6454,-1.6451,-1.6499,-1.6506,-1.6532,-1.6546,-1.6534,-1.6603,-1.659,-1.6566,-1.6525,-1.6598,-1.6626,-1.6637,-1.6484,-1.6483,-1.6482,-1.6481,0,0,-1.6433,-1.6443,-1.6455,-1.6464,-1.6475,-1.6499,-1.6538,-1.6563,-1.658,-1.6596,-1.6628,-1.6669,-1.6646,-1.666,-1.6649,-1.6679,-1.675,-1.6651,-1.6651,-1.6669,-1.6827,-1.6844,-1.6858,-1.6736,-1.6738,-1.674,-1.6826,0,-1.6515,-1.6579,-1.6566,-1.663,-1.6658,-1.663,-1.6664,-1.6676,-1.6675,-1.67,-1.67,-1.6729,-1.6698,-1.6706,-1.6734,-1.6735,-1.6781,-1.6729,-1.6767,-1.6768,-1.6762,-1.6872,-1.6891,-1.6971,-1.6837,-1.6838,-1.684,0,-1.6618,-1.6637,-1.6703,-1.6711,-1.6723,-1.6753,-1.6775,-1.6799,-1.6813,-1.681,-1.6826,-1.681,-1.685,-1.681,-1.6865,-1.683,-1.6845,-1.6848,-1.6851,-1.6853,-1.6807,-1.6877,-1.6996,-1.7008,-1.6857,-1.6856,-1.6854,0,-1.6694,-1.6737,-1.6782,-1.679,-1.6801,-1.6823,-1.6829,-1.684,-1.6856,-1.6876,-1.6886,-1.6911,-1.6925,-1.6945,-1.6937,-1.6908,-1.6994,-1.6953,-1.6993,-1.6993,-1.7011,-1.701,-1.7134,-1.7023,-1.7023,-1.7023,-1.7022,0,-1.6786,-1.6828,-1.6816,-1.6844,-1.689,-1.6876,-1.6923,-1.6925,-1.6936,-1.6965,-1.6943,-1.6971,-1.6959,-1.6986,-1.6981,-1.7027,-1.7034,-1.7033,-1.7031,-1.7035,-1.7035,-1.7043,-1.7037,-1.7026,-1.7025,-1.7024,-1.7024,0,-1.6879,-1.6872,-1.6919,-1.6926,-1.6929,-1.6963,-1.6969,-1.6995,-1.6994,-1.703,-1.7038,-1.7036,-1.7067,-1.7062,-1.7097,-1.7093,-1.7151,-1.7143,-1.7146,-1.7144,-1.7184,-1.718,-1.7317,-1.7334,-1.7213,-1.7214,-1.7215,0,-1.6937,-1.6968,-1.6978,-1.6995,-1.7002,-1.7031,-1.7047,-1.7035,-1.7053,-1.7072,-1.7096,-1.7126,-1.7148,-1.72,-1.7202,-1.7229,-1.722,-1.7267,-1.7224,-1.7227,-1.722,-1.7218,-1.7221,-1.7275,-1.7276,-1.7277,-1.7278,0,-1.7041,-1.7037,-1.706,-1.7083,-1.7103,-1.7121,-1.7137,-1.7152,-1.7142,-1.7164,-1.7195,-1.7213,-1.7248,-1.7278,-1.7304,-1.7311,-1.7293,-1.7292,-1.7302,-1.7305,-1.7306,-1.7305,-1.7168,-1.7288,-1.7287,-1.7286,-1.7286,-1.7285,-1.7117,-1.7144,-1.7155,-1.7183,-1.7193,-1.7209,-1.7234,-1.7236,-1.7262,-1.7289,-1.7281,-1.7317,-1.7331,-1.7363,-1.7374,-1.7402,-1.7385,-1.7401,-1.7405,-1.7408,-1.7413,-1.7302,-1.7407,-1.7407,-1.7407,-1.7407,-1.7406,0,-1.722,-1.7226,-1.7251,-1.7274,-1.7296,-1.7277,-1.7294,-1.7314,-1.7345,-1.736,-1.7383,-1.7419,-1.7448,-1.7454,-1.7482,-1.7504,-1.7496,-1.7511,-1.7509,-1.7511,-1.7427,-1.7414,-1.7517,-1.7517,-1.7517,-1.7517,-1.7517,-1.7517,-1.7275,-1.7319,-1.7317,-1.7367,-1.7373,-1.7407,-1.7418,-1.7433,-1.7444,-1.7486,-1.751,-1.7513,-1.7524,-1.7553,-1.7579,-1.758,-1.7591,-1.7609,-1.7607,-1.7528,-1.7517,-1.7506,-1.7494,-1.7612,-1.7612,-1.7688,-1.7689,-1.769]},{"header":{"parameterUnit":"m.s-1","parameterCategory":1,"la1":30.2991,"la2":30.254,"lo1":-89.0895,"lo2":-89.0444,"dy":0.0017,"dx":0.0017,"nx":28,"ny":28,"refTime":"2024-02-14T09:00:00:Z","depth":0,"parameterNumber":3,"parameterNumberName":"V-component_of_WINDS"},"data":[0,0,0,0,0,0,0,0,0,0,0,0,0,0,0,0,0,0,0,0,0,0,0,0,0,0,0,0,0,0,0,0,0,0,0,0,0,0,0,0,0,0,0,0,0,0,0,0,0,0,0,0,0,0,0,0,0,0,0.969,0.969,0,0.9706,0.9706,0.9706,0.973,0.9731,0.9731,0.9732,0.9746,0.9746,0.9746,0,0,0,0,0,0,0,0,0,0,0,0,0,0.9681,0.9681,0.969,0.969,0.969,0.9706,0.9706,0.9706,0.973,0.9731,0.9731,0.9732,0.9746,0.9746,0.9746,0,0,0,0,0,0,0,0,0,0,0,0,0,0.9689,0.9681,0.969,0.9704,0.9706,0.9706,0.9706,0.9706,0.973,0.9731,0.9732,0.9732,0.9746,0.9746,0.9746,0.9732,0,0,0.9746,0.9746,0,0,0,0,0,0,0,0,0.9689,0.969,0.9702,0.9703,0.9705,0.9717,0.9708,0.9715,0.973,0.9721,0.9732,0.9733,0.9735,0.9736,0.9738,0.9733,0.9733,0.9746,0.9745,0.9745,0.9745,0,0,0,0,0,0,0,0.9688,0.9689,0.9696,0.9702,0.9704,0.971,0.9712,0.9709,0.9724,0.9722,0.9724,0.9725,0.9736,0.9738,0.9738,0.9733,0.9746,0.9745,0.9745,0.9745,0.9719,0.9718,0,0,0,0,0,0,0.9686,0.9689,0.9696,0.9697,0.9699,0.971,0.9712,0.9712,0.9724,0.9727,0.9725,0.9726,0.9737,0.9738,0.9739,0.9724,0.9745,0.9745,0.9745,0.972,0.9719,0.9718,0,0,0,0,0,0,0.9685,0.9686,0.9695,0.9693,0.9695,0.9709,0.9709,0.9712,0.9714,0.9727,0.9729,0.9723,0.9738,0.9739,0.9734,0.9725,0.9745,0.9745,0.972,0.9719,0.9718,0.9694,0,0,0,0,0,0,0.9685,0.9686,0.9681,0.9693,0.9695,0.969,0.9709,0.9712,0.9714,0.9716,0.9726,0.9728,0.9739,0.9734,0.9734,0.9725,0.9745,0.9721,0.972,0.9719,0.9696,0.9692,0.9689,0,0,0,0,0,0.9685,0.9673,0.968,0.9681,0.9689,0.9689,0.969,0.9703,0.9713,0.9708,0.9716,0.9728,0.9726,0.9733,0.9733,0.9724,0.9722,0.972,0.9719,0.9697,0.9693,0.969,0,0,0,0,0,0,0.9658,0.9674,0.9683,0.9675,0.9681,0.9694,0.9688,0.9698,0.9701,0.9703,0.9718,0.972,0.9713,0.9719,0.9726,0.9712,0.9726,0.9724,0.9709,0.9705,0.9702,0.9701,0.9745,0,0,0,0,0,0.9652,0.9651,0.9665,0.9657,0.9659,0.9673,0.9674,0.9683,0.9689,0.9692,0.97,0.9705,0.9706,0.9706,0.9707,0.9697,0.9699,0.9691,0.9688,0.9685,0.9684,0.9679,0.9676,0.9713,0.9713,0.9713,0,0,0.9638,0.9647,0.9645,0.9652,0.9657,0.9656,0.9675,0.9673,0.9672,0.9691,0.9687,0.9694,0.9701,0.9693,0.969,0.9697,0.9674,0.9683,0.9681,0.9681,0.9677,0.9674,0.967,0.9712,0.9712,0.9712,0,0,0.9612,0.9618,0.9612,0.9618,0.9627,0.9636,0.9635,0.9646,0.9651,0.9648,0.9662,0.9662,0.9663,0.9667,0.967,0.9647,0.9658,0.9647,0.9631,0.9626,0.9623,0.9621,0.9613,0.961,0.9646,0.9645,0.9645,0,0.9593,0.9592,0.9607,0.9605,0.9608,0.9626,0.962,0.9625,0.9633,0.9634,0.9642,0.9645,0.965,0.9645,0.9639,0.9641,0.9639,0.9646,0.9622,0.962,0.9618,0.9611,0.9608,0.9644,0.9644,0.9644,0.9645,0,0.9569,0.9569,0.9563,0.9571,0.9573,0.9569,0.9583,0.9584,0.9593,0.9602,0.9598,0.9607,0.961,0.961,0.9619,0.9605,0.9609,0.962,0.9633,0.9613,0.9606,0.9603,0.9642,0.9643,0.9643,0.9643,0,0,0.9526,0.9544,0.9542,0.9546,0.9558,0.9558,0.9554,0.9559,0.9559,0.9564,0.9562,0.9563,0.9573,0.9576,0.9586,0.9582,0.9564,0.9593,0.9593,0.9587,0.955,0.9542,0.9539,0.9571,0.9571,0.9571,0.955,0,0.9502,0.9498,0.9512,0.9505,0.9505,0.9523,0.952,0.9527,0.9535,0.9536,0.9545,0.9546,0.9559,0.9561,0.9558,0.9567,0.9557,0.9568,0.9569,0.9569,0.9567,0.9535,0.9527,0.9507,0.9547,0.9547,0.9546,0,0.9474,0.9479,0.9471,0.9485,0.9485,0.9482,0.9488,0.9489,0.9497,0.9504,0.9507,0.9519,0.9517,0.9531,0.9528,0.9536,0.9537,0.9542,0.9541,0.9541,0.9556,0.9535,0.95,0.9497,0.9542,0.9543,0.9543,0,0.9443,0.9448,0.9445,0.9448,0.9463,0.9461,0.9467,0.9476,0.9478,0.9483,0.9485,0.9489,0.9491,0.9495,0.9507,0.9516,0.9503,0.9518,0.9508,0.9508,0.9504,0.9504,0.947,0.9505,0.9505,0.9505,0.9505,0,0.9415,0.941,0.9431,0.9429,0.9424,0.944,0.9435,0.9443,0.9451,0.945,0.9466,0.9465,0.9483,0.9484,0.9494,0.949,0.9491,0.9496,0.9499,0.9494,0.9494,0.9495,0.9497,0.9505,0.9505,0.9505,0.9505,0,0.938,0.9394,0.9392,0.9407,0.941,0.9406,0.9419,0.9417,0.9427,0.9426,0.9427,0.9442,0.9444,0.9458,0.9463,0.947,0.9462,0.9468,0.946,0.9462,0.9451,0.9452,0.9416,0.9412,0.945,0.945,0.945,0,0.9361,0.9358,0.9373,0.9374,0.938,0.9381,0.9384,0.94,0.9402,0.9412,0.941,0.9414,0.9417,0.942,0.9431,0.9435,0.9441,0.9428,0.9442,0.9438,0.9441,0.9441,0.9441,0.9425,0.9425,0.9424,0.9424,0,0.9326,0.9334,0.9337,0.9343,0.9346,0.9352,0.9358,0.9358,0.9376,0.9378,0.9381,0.9384,0.939,0.9394,0.94,0.9406,0.9418,0.942,0.9418,0.9413,0.9409,0.9411,0.9452,0.942,0.9421,0.9421,0.9421,0.9421,0.9299,0.9297,0.9308,0.9311,0.9318,0.9324,0.9324,0.9334,0.9337,0.9343,0.9353,0.9355,0.9364,0.9374,0.9379,0.9381,0.9388,0.9385,0.9384,0.9383,0.9381,0.9409,0.9382,0.9382,0.9382,0.9382,0.9382,0,0.9265,0.9273,0.9276,0.9285,0.9288,0.93,0.9308,0.931,0.9312,0.9319,0.9323,0.9327,0.9331,0.9343,0.9348,0.9347,0.9353,0.9348,0.9348,0.9349,0.9374,0.9376,0.9343,0.9343,0.9343,0.9343,0.9343,0.9343,0.9247,0.9245,0.9254,0.9256,0.9264,0.9266,0.927,0.9275,0.9282,0.9286,0.9289,0.9298,0.9307,0.9314,0.9318,0.9321,0.9322,0.9316,0.9321,0.9344,0.9347,0.9351,0.9352,0.9316,0.9316,0.9296,0.9296,0.9295]}]]